Location: Piotrkow Trybunalski
(51.4000°N, 19.6830°E)
Time: 19:02:09
(UTC+02:00)

Vanguard 2 Rocket - Visible Passes

Search period start: 18 July 2024 00:00
Search period end: 28 July 2024 00:00
Orbit: 555 x 3302 km, 32.9° (Epoch: 17 July)

Date Brightness Start Highest point End Pass type
(mag) Time Alt. Az. Time Alt. Az. Time Alt. Az.
18 Jul 9.8 01:56:17 10° WSW 02:12:22 12° S 02:13:40 10° S visible
18 Jul 9.0 22:40:39 10° SW 22:47:23 26° S 22:55:11 14° SE visible
19 Jul 9.6 00:53:06 10° WSW 01:17:24 - SSE 01:00:31 20° SSW visible
19 Jul 8.9 21:39:11 10° SW 21:44:46 23° S 21:52:52 10° SE visible
19 Jul 9.3 23:50:37 10° WSW 23:57:34 22° SSW 23:59:35 21° S visible
20 Jul 9.1 22:48:36 10° SW 22:54:41 22° S 22:59:06 17° SSE visible
21 Jul 9.8 01:02:19 10° SW 01:04:31 13° SW 01:04:31 13° SW visible
21 Jul 8.9 21:46:58 10° SW 21:52:03 20° S 21:58:51 11° SE visible
21 Jul 9.5 23:59:14 10° SW 00:04:18 17° SSW 00:04:18 17° SSW visible
22 Jul 9.2 22:56:54 10° SW 23:01:59 17° S 23:04:15 16° S visible
23 Jul 9.0 21:55:01 10° SW 21:59:22 17° S 22:04:18 11° SSE visible
24 Jul 9.7 00:09:33 10° SW 00:09:46 10° SSW 00:09:46 10° SSW visible
24 Jul 9.4 23:06:06 10° SW 23:09:17 12° SSW 23:09:55 12° S visible
25 Jul 9.2 22:03:44 10° SSW 22:06:41 13° S 22:10:09 10° SSE visible
